User: anonymous   Login
Location: Peebles
(55.6412°N, 3.1714°W)
Time: 06:52:26
(UTC+00:00)
Language:

Meteor 2-19 Rocket - Orbit

View from above orbital plane
View from above orbital plane
View from above satellite
View from above satellite

Ground track
Ground track

The orbit data is extracted from the following two-line orbital elements,

1 20671U 90057B   22333.70247115  .00000031  00000-0  14576-4 0  9998
2 20671  82.5490 229.0495 0016318 120.2215 240.0564 13.84645689638382
Epoch (UTC): 29 November 2022 16:51:33
Eccentricity: 0.0016318
inclination: 82.5490°
perigee height: 935 km
apogee height: 959 km
right ascension of ascending node: 229.0495°
argument of perigee: 120.2215°
revolutions per day: 13.84645689
mean anomaly at epoch: 240.0564°
orbit number at epoch: 63838

The dashed part of the orbit path shows where the satellite is in the earth's shadow,  

DLR